Regional Weather Roundup
Issued by NWS

Home | Current Version | Previous Version | Text Only | Print | Product List | Glossary On
Versions: 1 2 3 4 5 6 7 8 9 10 11 12 13 14 15 16 17 18 19 20 21 22 23 24 25 26 27 28 29 30 31 32 33 34 35 36 37 38 39 40 41 42 43 44 45 46 47 48 49 50
790
ASUS43 KLMK 300110
RWRKY
KENTUCKY REGIONAL WEATHER ROUNDUP
NATIONAL WEATHER SERVICE LOUISVILLE KY
900 PM EDT WED MAR 29 2017

NOTE "FAIR" INDICATES FEW OR NO CLOUDS BELOW 12,000 FEET
WITH NO SIGNIFICANT WEATHER AND/OR OBSTRUCTIONS TO VISIBILITY.

KYZ001>023-026-027-061>063-070>075-300200-
WESTERN AND SOUTH CENTRAL KENTUCKY

CITY           SKY/WX    TMP DP  RH WIND       PRES   REMARKS
PADUCAH        CLOUDY    71  57  61 E9        29.82F
HENDERSON      CLOUDY    64  52  63 E12       29.88F
OWENSBORO      PTCLDY    66  54  65 E13       29.91S
HOPKINSVILLE   PTCLDY    71  58  65 E9        29.86R
BOWLING GREEN  PTCLDY    67  56  67 NE8       29.91S
GLASGOW        PTCLDY    66  54  64 NE7       29.92F
$$

KYZ024-025-028>034-038-045-046-053-300200-
NORTH CENTRAL KENTUCKY

CITY           SKY/WX    TMP DP  RH WIND       PRES   REMARKS
LOUISVILLE/SDF MOCLDY    62  48  60 E9        29.99F
LOUISVILLE/LOU PTCLDY    62  49  62 E12       30.00F
FORT KNOX      CLEAR     62  51  68 NE12      29.96S
$$

KYZ035>037-039>044-047>052-055>060-089>105-300200-
NORTHEAST KENTUCKY

CITY           SKY/WX    TMP DP  RH WIND       PRES   REMARKS
LEXINGTON      CLEAR     58  48  69 NE10      30.04R
COVINGTON      PTCLDY    54  44  69 E9        30.08R
FRANKFORT      CLEAR     60  48  64 NE6       30.02R
$$

KYZ054-064>069-076>088-106>120-300200-
SOUTHEAST KENTUCKY

CITY           SKY/WX    TMP DP  RH WIND       PRES   REMARKS
JACKSON        CLEAR     58  47  66 VRB6      30.05S
LONDON         CLEAR     64  48  56 NE6       30.00S
SOMERSET       CLEAR     64  50  59 E6        29.99S
MIDDLESBORO    CLEAR     64  52  67 CALM      30.00S
MONTICELLO     CLEAR     65  54  67 NW7       29.99S
$$





USA.gov is the U.S. government's official web portal to all federal, state and local government web resources and services.